WJA558 CYYC-CYUL

Flight info

Callsign WJA558
Flight time N/A
Altitude 37000
Route LOMLO Q961 DAPOP DCT MUSKK DCT VESRU DCT OVORA/N0463F390 Q919 BEMOG LFLER7
Aircraft B38M/M-SDE1FGHILORVWXY/HB1

Departure

Time 2026-05-06 01:12
Airport Calgary International Airport (CYYC)

Arrival

Time N/A
Airport Montreal / Pierre Elliott Trudeau International Airport (CYUL)
Time Latitude Longitude Altitude Speed Heading
2026-05-06 00:49 51.13332 -114.01408 3562 ft 0 kts 180°
2026-05-06 00:59 51.13345 -114.01408 3559 ft 3 kts 180°
2026-05-06 00:59 51.13362 -114.01408 3560 ft 2 kts 180°
2026-05-06 00:59 51.13378 -114.01408 3560 ft 2 kts 180°
2026-05-06 00:59 51.13395 -114.01408 3556 ft 2 kts 180°
2026-05-06 01:00 51.13411 -114.01408 3555 ft 2 kts 180°
2026-05-06 01:00 51.13428 -114.01408 3560 ft 2 kts 180°
2026-05-06 01:00 51.13444 -114.01408 3558 ft 2 kts 180°
2026-05-06 01:00 51.13461 -114.01408 3560 ft 2 kts 180°
2026-05-06 01:01 51.13475 -114.01408 3555 ft 0 kts 180°
2026-05-06 01:01 51.13473 -114.01408 3558 ft 0 kts 180°
2026-05-06 01:02 51.13468 -114.01408 3555 ft 3 kts 180°
2026-05-06 01:02 51.13432 -114.01422 3556 ft 6 kts 236°
2026-05-06 01:02 51.13422 -114.01510 3558 ft 11 kts 264°
2026-05-06 01:03 51.13399 -114.01639 3558 ft 0 kts 242°
2026-05-06 01:03 51.13398 -114.01641 3559 ft 2 kts 242°
2026-05-06 01:04 51.13378 -114.01709 3562 ft 12 kts 244°
2026-05-06 01:04 51.13318 -114.01846 3562 ft 18 kts 205°
2026-05-06 01:04 51.13172 -114.01854 3562 ft 24 kts 181°
2026-05-06 01:04 51.12996 -114.01794 3562 ft 29 kts 180°
2026-05-06 01:05 51.12774 -114.01796 3557 ft 35 kts 180°
2026-05-06 01:05 51.12535 -114.01794 3562 ft 25 kts 181°
2026-05-06 01:05 51.12365 -114.01795 3562 ft 19 kts 180°
2026-05-06 01:05 51.12227 -114.01795 3559 ft 21 kts 180°
2026-05-06 01:06 51.12080 -114.01795 3560 ft 21 kts 180°
2026-05-06 01:06 51.11932 -114.01795 3562 ft 22 kts 180°
2026-05-06 01:06 51.11773 -114.01796 3562 ft 23 kts 180°
2026-05-06 01:06 51.11609 -114.01797 3559 ft 24 kts 180°
2026-05-06 01:07 51.11439 -114.01798 3562 ft 25 kts 180°
2026-05-06 01:07 51.11266 -114.01797 3558 ft 25 kts 181°
2026-05-06 01:07 51.11089 -114.01798 3556 ft 26 kts 180°
2026-05-06 01:07 51.10906 -114.01799 3558 ft 27 kts 180°
2026-05-06 01:08 51.10720 -114.01798 3557 ft 27 kts 180°
2026-05-06 01:08 51.10531 -114.01798 3561 ft 27 kts 180°
2026-05-06 01:08 51.10341 -114.01798 3561 ft 17 kts 180°
2026-05-06 01:08 51.10221 -114.01799 3558 ft 18 kts 180°
2026-05-06 01:09 51.10096 -114.01799 3559 ft 19 kts 180°
2026-05-06 01:09 51.09963 -114.01799 3560 ft 20 kts 180°
2026-05-06 01:09 51.09823 -114.01799 3562 ft 20 kts 180°
2026-05-06 01:09 51.09697 -114.01846 3554 ft 8 kts 238°
2026-05-06 01:10 51.09691 -114.01935 3562 ft 8 kts 271°
2026-05-06 01:10 51.09691 -114.02029 3558 ft 8 kts 270°
2026-05-06 01:10 51.09699 -114.02119 3561 ft 8 kts 308°
2026-05-06 01:10 51.09751 -114.02139 3561 ft 8 kts 359°
2026-05-06 01:11 51.09871 -114.02140 3559 ft 42 kts 358°
2026-05-06 01:11 51.10438 -114.02137 3558 ft 119 kts
2026-05-06 01:11 51.11474 -114.02135 3592 ft 176 kts
2026-05-06 01:11 51.12798 -114.02092 4035 ft 203 kts
2026-05-06 01:12 51.14268 -114.02090 5034 ft 213 kts
2026-05-06 01:12 51.15768 -114.02094 6138 ft 214 kts
2026-05-06 01:12 51.17218 -114.01413 6757 ft 234 kts 36°
2026-05-06 01:12 51.18170 -113.99230 7437 ft 250 kts 74°
2026-05-06 01:13 51.18090 -113.96461 8275 ft 260 kts 107°
2026-05-06 01:13 51.17161 -113.93912 8927 ft 270 kts 119°
2026-05-06 01:13 51.16342 -113.91184 9622 ft 275 kts 108°
2026-05-06 01:13 51.15689 -113.88330 10264 ft 280 kts 104°
2026-05-06 01:14 51.14509 -113.82279 11789 ft 286 kts 101°
2026-05-06 01:14 51.13951 -113.79155 12433 ft 301 kts 99°
2026-05-06 01:14 51.13390 -113.75877 12860 ft 320 kts 99°
2026-05-06 01:15 51.12796 -113.72327 13241 ft 340 kts 99°
2026-05-06 01:15 51.12171 -113.68595 13597 ft 360 kts 99°
2026-05-06 01:15 51.11508 -113.64666 14061 ft 373 kts 99°
2026-05-06 01:15 51.10826 -113.60679 14738 ft 377 kts 99°
2026-05-06 01:16 51.10122 -113.56613 15432 ft 381 kts 98°
2026-05-06 01:16 51.09407 -113.52509 16127 ft 384 kts 98°
2026-05-06 01:16 51.08695 -113.48442 16795 ft 388 kts 97°
2026-05-06 01:16 51.07967 -113.44296 17452 ft 391 kts 97°
2026-05-06 01:17 51.07228 -113.40089 18126 ft 394 kts 95°
2026-05-06 01:17 51.06809 -113.35855 18694 ft 386 kts 85°
2026-05-06 01:17 51.06559 -113.31601 19184 ft 391 kts 85°
2026-05-06 01:17 51.06301 -113.27309 19725 ft 394 kts 85°
2026-05-06 01:18 51.06036 -113.22942 20247 ft 398 kts 86°
2026-05-06 01:18 51.05730 -113.18521 20763 ft 402 kts 86°
2026-05-06 01:18 51.05424 -113.14145 21256 ft 405 kts 86°
2026-05-06 01:18 51.05111 -113.09665 21763 ft 408 kts 86°
2026-05-06 01:19 51.04793 -113.05129 22265 ft 411 kts 86°
2026-05-06 01:19 51.04478 -113.00652 22749 ft 415 kts 86°
2026-05-06 01:19 51.04151 -112.96035 23247 ft 418 kts 86°
2026-05-06 01:19 51.03826 -112.91469 23709 ft 421 kts 86°
2026-05-06 01:20 51.03493 -112.86819 24129 ft 423 kts 86°
2026-05-06 01:20 51.03156 -112.82135 24533 ft 426 kts 86°
2026-05-06 01:20 51.02816 -112.77446 24949 ft 428 kts 86°
2026-05-06 01:20 51.02476 -112.72773 25356 ft 431 kts 86°
2026-05-06 01:21 51.02128 -112.68030 25764 ft 433 kts 86°
2026-05-06 01:21 51.01775 -112.63244 26161 ft 435 kts 86°
2026-05-06 01:21 51.01540 -112.60062 26425 ft 437 kts 86°
2026-05-06 01:21 51.01065 -112.53676 26945 ft 440 kts 86°
2026-05-06 01:22 51.00823 -112.50446 27187 ft 441 kts 85°
2026-05-06 01:22 51.00338 -112.44000 27686 ft 444 kts 85°
2026-05-06 01:22 50.99968 -112.39119 28055 ft 446 kts 85°
2026-05-06 01:22 50.99715 -112.35802 28290 ft 448 kts 85°
2026-05-06 01:23 50.99343 -112.30940 28627 ft 450 kts 85°
2026-05-06 01:23 50.98962 -112.25982 28994 ft 452 kts 85°
2026-05-06 01:23 50.98577 -112.21004 29331 ft 454 kts 85°
2026-05-06 01:23 50.98192 -112.16060 29649 ft 457 kts 85°
2026-05-06 01:24 50.97798 -112.11027 29978 ft 459 kts 85°
2026-05-06 01:24 50.97401 -112.05984 30295 ft 461 kts 85°
2026-05-06 01:24 50.96999 -112.00906 30566 ft 463 kts 85°
2026-05-06 01:24 50.96600 -111.95881 30839 ft 465 kts 85°
2026-05-06 01:25 50.96189 -111.90749 31097 ft 466 kts 85°
2026-05-06 01:25 50.95777 -111.85629 31444 ft 466 kts 85°
2026-05-06 01:25 50.95368 -111.80583 31805 ft 465 kts 85°
2026-05-06 01:25 50.94951 -111.75458 32171 ft 464 kts 84°
2026-05-06 01:26 50.94540 -111.70435 32526 ft 463 kts 84°
2026-05-06 01:26 50.94122 -111.65354 32881 ft 462 kts 84°
2026-05-06 01:26 50.93704 -111.60290 33227 ft 461 kts 84°
2026-05-06 01:26 50.93286 -111.55243 33570 ft 460 kts 84°
2026-05-06 01:27 50.92872 -111.50272 33917 ft 459 kts 84°
2026-05-06 01:27 50.92645 -111.45287 34232 ft 446 kts 78°
2026-05-06 01:27 50.92541 -111.40396 34496 ft 448 kts 79°
2026-05-06 01:27 50.92408 -111.35465 34723 ft 449 kts 79°
2026-05-06 01:28 50.92259 -111.30500 34957 ft 449 kts 80°
2026-05-06 01:28 50.92103 -111.25548 35176 ft 450 kts 80°
2026-05-06 01:28 50.91944 -111.20625 35390 ft 450 kts 80°
2026-05-06 01:28 50.91782 -111.15656 35612 ft 451 kts 81°
2026-05-06 01:29 50.91620 -111.10734 35811 ft 451 kts 81°
2026-05-06 01:29 50.91453 -111.05750 36035 ft 452 kts 81°
2026-05-06 01:29 50.91284 -111.00752 36256 ft 452 kts 81°
2026-05-06 01:29 50.91115 -110.95823 36471 ft 452 kts 82°
2026-05-06 01:30 50.90941 -110.90809 36678 ft 453 kts 82°
2026-05-06 01:30 50.90767 -110.85859 36872 ft 453 kts 82°
2026-05-06 01:30 50.90588 -110.80836 37062 ft 453 kts 82°
2026-05-06 01:30 50.90410 -110.75882 37209 ft 453 kts 83°
2026-05-06 01:31 50.90045 -110.65910 37221 ft 453 kts 83°
2026-05-06 01:31 50.89670 -110.55920 37226 ft 454 kts 83°
2026-05-06 01:32 50.89288 -110.45975 37220 ft 453 kts 83°
2026-05-06 01:32 50.88896 -110.35984 37218 ft 454 kts 83°
2026-05-06 01:33 50.88497 -110.26004 37225 ft 454 kts 83°
2026-05-06 01:33 50.88089 -110.16040 37217 ft 454 kts 84°
2026-05-06 01:34 50.87675 -110.06094 37226 ft 454 kts 84°
2026-05-06 01:34 50.87496 -109.96129 37235 ft 448 kts 79°
2026-05-06 01:35 50.87525 -109.86279 37217 ft 449 kts 80°
2026-05-06 01:35 50.87515 -109.76392 37224 ft 450 kts 80°
2026-05-06 01:36 50.87494 -109.66455 37217 ft 450 kts 81°
2026-05-06 01:36 50.87464 -109.56575 37218 ft 450 kts 81°
2026-05-06 01:37 50.87426 -109.46698 37213 ft 450 kts 81°
2026-05-06 01:37 50.87380 -109.36754 37212 ft 451 kts 81°
2026-05-06 01:38 50.87325 -109.26874 37214 ft 451 kts 81°
2026-05-06 01:38 50.87262 -109.16934 37213 ft 451 kts 81°
2026-05-06 01:39 50.87190 -109.06973 37210 ft 451 kts 81°
2026-05-06 01:39 50.87110 -108.97062 37214 ft 452 kts 82°
2026-05-06 01:40 50.87022 -108.87136 37205 ft 452 kts 82°
2026-05-06 01:40 50.86925 -108.77189 37200 ft 453 kts 82°
2026-05-06 01:41 50.86818 -108.67177 37202 ft 453 kts 82°
2026-05-06 01:41 50.86705 -108.57242 37205 ft 454 kts 82°
2026-05-06 01:42 50.86583 -108.47359 37203 ft 454 kts 83°
2026-05-06 01:42 50.86451 -108.37325 37198 ft 455 kts 83°
2026-05-06 01:43 50.86311 -108.27363 37199 ft 455 kts 83°
2026-05-06 01:43 50.86161 -108.17309 37199 ft 456 kts 83°
2026-05-06 01:44 50.86003 -108.07249 37196 ft 457 kts 84°
2026-05-06 01:44 50.85837 -107.97225 37192 ft 457 kts 84°
2026-05-06 01:45 50.85661 -107.87202 37191 ft 457 kts 84°
2026-05-06 01:45 50.85477 -107.77101 37192 ft 458 kts 84°
2026-05-06 01:46 50.85284 -107.67069 37193 ft 458 kts 84°
2026-05-06 01:46 50.85082 -107.56998 37194 ft 459 kts 85°
2026-05-06 01:47 50.84870 -107.46854 37202 ft 459 kts 85°
2026-05-06 01:47 50.84651 -107.36807 37203 ft 459 kts 85°
2026-05-06 01:48 50.84423 -107.26692 37195 ft 460 kts 85°
2026-05-06 01:48 50.84185 -107.16566 37209 ft 460 kts 85°
2026-05-06 01:49 50.83939 -107.06481 37202 ft 460 kts 86°
2026-05-06 01:49 50.83683 -106.96327 37206 ft 461 kts 86°
2026-05-06 01:50 50.83419 -106.86220 37205 ft 461 kts 86°
2026-05-06 01:50 50.83147 -106.76136 37203 ft 461 kts 86°
2026-05-06 01:51 50.82865 -106.66014 37196 ft 461 kts 86°
2026-05-06 01:51 50.82573 -106.55836 37195 ft 461 kts 86°
2026-05-06 01:52 50.82273 -106.45710 37191 ft 462 kts 87°
2026-05-06 01:52 50.81965 -106.35569 37195 ft 462 kts 87°
2026-05-06 01:53 50.81648 -106.25456 37190 ft 462 kts 87°
2026-05-06 01:53 50.81322 -106.15328 37187 ft 462 kts 87°
2026-05-06 01:54 50.80987 -106.05195 37191 ft 462 kts 88°
2026-05-06 01:54 50.80640 -105.94977 37181 ft 463 kts 88°
2026-05-06 01:55 50.80288 -105.84861 37181 ft 463 kts 88°
2026-05-06 01:55 50.79926 -105.74720 37183 ft 463 kts 88°
2026-05-06 01:56 50.79554 -105.64525 37184 ft 463 kts 88°
2026-05-06 01:56 50.79174 -105.54381 37185 ft 463 kts 88°
2026-05-06 01:57 50.78786 -105.44246 37185 ft 463 kts 89°
2026-05-06 01:57 50.78388 -105.34092 37188 ft 464 kts 89°
2026-05-06 01:58 50.77980 -105.23905 37186 ft 464 kts 89°
2026-05-06 01:58 50.77566 -105.13777 37182 ft 464 kts 89°
2026-05-06 01:59 50.77141 -105.03609 37183 ft 464 kts 89°
2026-05-06 01:59 50.76706 -104.93414 37181 ft 464 kts 89°
2026-05-06 02:00 50.76264 -104.83286 37175 ft 464 kts 89°
2026-05-06 02:00 50.75811 -104.73087 37173 ft 464 kts 90°
2026-05-06 02:01 50.75353 -104.62971 37175 ft 464 kts 90°
2026-05-06 02:01 50.74884 -104.52820 37168 ft 464 kts 90°
2026-05-06 02:02 50.74405 -104.42632 37171 ft 464 kts 90°
2026-05-06 02:02 50.73920 -104.32512 37174 ft 464 kts 90°
2026-05-06 02:03 50.73422 -104.22331 37170 ft 464 kts 90°
2026-05-06 02:03 50.72919 -104.12197 37165 ft 464 kts 90°
2026-05-06 02:04 50.72407 -104.02078 37170 ft 464 kts 90°
2026-05-06 02:04 50.71884 -103.91918 37175 ft 464 kts 91°
2026-05-06 02:05 50.71353 -103.81769 37168 ft 464 kts 91°
2026-05-06 02:05 50.70813 -103.71635 37168 ft 465 kts 91°
2026-05-06 02:06 50.70261 -103.61426 37165 ft 465 kts 91°
2026-05-06 02:06 50.69704 -103.51291 37163 ft 465 kts 91°
2026-05-06 02:07 50.69137 -103.41142 37164 ft 465 kts 91°
2026-05-06 02:07 50.68560 -103.30985 37156 ft 465 kts 91°
2026-05-06 02:08 50.67976 -103.20846 37158 ft 465 kts 91°
2026-05-06 02:08 50.67383 -103.10709 37152 ft 466 kts 91°
2026-05-06 02:09 50.66778 -103.00512 37156 ft 466 kts 92°
2026-05-06 02:09 50.66167 -102.90387 37145 ft 466 kts 92°
2026-05-06 02:10 50.65543 -102.80186 37148 ft 466 kts 92°
2026-05-06 02:10 50.64915 -102.70062 37142 ft 466 kts 92°
2026-05-06 02:11 50.64276 -102.59910 37139 ft 466 kts 92°
2026-05-06 02:11 50.63736 -102.51427 37140 ft 466 kts 92°
2026-05-06 02:12 50.62972 -102.39616 37139 ft 466 kts 92°
2026-05-06 02:12 50.62305 -102.29451 37134 ft 466 kts 92°
2026-05-06 02:13 50.61743 -102.20985 37133 ft 466 kts 92°
2026-05-06 02:13 50.61064 -102.10893 37130 ft 466 kts 92°
2026-05-06 02:14 50.60372 -102.00719 37126 ft 467 kts 93°
2026-05-06 02:14 50.59669 -101.90528 37124 ft 467 kts 93°
2026-05-06 02:15 50.58961 -101.80412 37126 ft 467 kts 93°
2026-05-06 02:15 50.58244 -101.70281 37118 ft 467 kts 93°
2026-05-06 02:16 50.57514 -101.60091 37118 ft 467 kts 93°
2026-05-06 02:16 50.56778 -101.49951 37119 ft 467 kts 93°
2026-05-06 02:17 50.56030 -101.39772 37112 ft 468 kts 93°
2026-05-06 02:17 50.55278 -101.29657 37111 ft 468 kts 94°
2026-05-06 02:18 50.54515 -101.19502 37116 ft 468 kts 94°
2026-05-06 02:18 50.53740 -101.09334 37111 ft 468 kts 94°
2026-05-06 02:19 50.52958 -100.99175 37114 ft 468 kts 94°
2026-05-06 02:19 50.52166 -100.89006 37114 ft 468 kts 94°
2026-05-06 02:20 50.50965 -100.73799 37112 ft 469 kts 94°
2026-05-06 02:21 50.50154 -100.63634 37113 ft 469 kts 94°
2026-05-06 02:21 50.49336 -100.53486 37111 ft 469 kts 94°
2026-05-06 02:22 50.48509 -100.43351 37113 ft 469 kts 94°
2026-05-06 02:22 50.47673 -100.33197 37117 ft 469 kts 95°
2026-05-06 02:23 50.46825 -100.23002 37118 ft 469 kts 95°
2026-05-06 02:23 50.45973 -100.12872 37118 ft 470 kts 95°
2026-05-06 02:24 50.45109 -100.02701 37121 ft 470 kts 95°
2026-05-06 02:24 50.44236 -99.92527 37122 ft 470 kts 95°
2026-05-06 02:25 50.43361 -99.82416 37119 ft 470 kts 95°
2026-05-06 02:25 50.42769 -99.72191 37120 ft 469 kts 92°
2026-05-06 02:26 50.42208 -99.61998 37119 ft 469 kts 92°
2026-05-06 02:26 50.41640 -99.51847 37117 ft 469 kts 92°
2026-05-06 02:27 50.41060 -99.41655 37117 ft 470 kts 92°
2026-05-06 02:27 50.40472 -99.31465 37111 ft 470 kts 93°
2026-05-06 02:28 50.39872 -99.21236 37100 ft 470 kts 93°
2026-05-06 02:28 50.39263 -99.11010 37111 ft 470 kts 93°
2026-05-06 02:29 50.38651 -99.00869 37099 ft 470 kts 93°
2026-05-06 02:29 50.38026 -98.90672 37100 ft 471 kts 93°
2026-05-06 02:30 50.37389 -98.80437 37100 ft 471 kts 94°
2026-05-06 02:30 50.36745 -98.70215 37099 ft 471 kts 94°
2026-05-06 02:31 50.36093 -98.60040 37095 ft 471 kts 94°
2026-05-06 02:31 50.35429 -98.49801 37095 ft 472 kts 94°
2026-05-06 02:32 50.34759 -98.39616 37087 ft 472 kts 94°
2026-05-06 02:32 50.34077 -98.29376 37091 ft 472 kts 94°
2026-05-06 02:33 50.33388 -98.19178 37088 ft 472 kts 94°
2026-05-06 02:33 50.33157 -98.15796 37084 ft 472 kts 94°
2026-05-06 02:34 50.31981 -97.98760 37082 ft 472 kts 94°
2026-05-06 02:34 50.31263 -97.88539 37079 ft 473 kts 95°
2026-05-06 02:35 50.30535 -97.78315 37080 ft 473 kts 95°
2026-05-06 02:35 50.29799 -97.68088 37074 ft 473 kts 95°
2026-05-06 02:36 50.29056 -97.57901 37074 ft 473 kts 95°
2026-05-06 02:36 50.28301 -97.47675 37070 ft 473 kts 95°
2026-05-06 02:37 50.27534 -97.37422 37069 ft 473 kts 95°
2026-05-06 02:37 50.26764 -97.27244 37065 ft 473 kts 95°
2026-05-06 02:38 50.25982 -97.17026 37064 ft 474 kts 95°
2026-05-06 02:38 50.25190 -97.06790 37066 ft 474 kts 95°
2026-05-06 02:39 50.24388 -96.96554 37064 ft 474 kts 95°
2026-05-06 02:39 50.23578 -96.86333 37066 ft 474 kts 96°
2026-05-06 02:40 50.22759 -96.76119 37065 ft 474 kts 96°
2026-05-06 02:40 50.21934 -96.65942 37069 ft 474 kts 96°
2026-05-06 02:41 50.21095 -96.55702 37067 ft 475 kts 96°
2026-05-06 02:41 50.20253 -96.45544 37068 ft 475 kts 96°
2026-05-06 02:42 50.19395 -96.35298 37067 ft 475 kts 96°
2026-05-06 02:42 50.18528 -96.25069 37068 ft 475 kts 96°
2026-05-06 02:43 50.17652 -96.14835 37066 ft 476 kts 96°
2026-05-06 02:43 50.16772 -96.04655 37065 ft 476 kts 96°
2026-05-06 02:44 50.15875 -95.94397 37064 ft 476 kts 96°
2026-05-06 02:44 50.14970 -95.84154 37059 ft 476 kts 97°
2026-05-06 02:45 50.14062 -95.73972 37058 ft 476 kts 97°
2026-05-06 02:45 50.13138 -95.63723 37055 ft 476 kts 97°
2026-05-06 02:46 50.12210 -95.53535 37053 ft 477 kts 97°
2026-05-06 02:46 50.11268 -95.43294 37048 ft 477 kts 97°
2026-05-06 02:47 50.10324 -95.33125 37041 ft 477 kts 97°
2026-05-06 02:47 50.09363 -95.22880 37041 ft 477 kts 97°
2026-05-06 02:48 50.08392 -95.12636 37040 ft 477 kts 97°
2026-05-06 02:48 50.07421 -95.02477 37035 ft 477 kts 97°
2026-05-06 02:49 50.06432 -94.92239 37031 ft 477 kts 97°
2026-05-06 02:49 50.05436 -94.82015 37026 ft 477 kts 98°
2026-05-06 02:50 50.04438 -94.71867 37020 ft 477 kts 98°
2026-05-06 02:50 50.03424 -94.61661 37002 ft 478 kts 98°
2026-05-06 02:51 50.02399 -94.51436 36992 ft 478 kts 98°
2026-05-06 02:51 50.01366 -94.41221 36982 ft 478 kts 98°
2026-05-06 02:52 50.00330 -94.31064 36976 ft 478 kts 98°
2026-05-06 02:52 49.99277 -94.20841 36979 ft 478 kts 98°
2026-05-06 02:53 49.98218 -94.10647 36978 ft 478 kts 98°
2026-05-06 02:53 49.97152 -94.00477 36983 ft 478 kts 98°
2026-05-06 02:54 49.96070 -93.90249 36985 ft 478 kts 98°
2026-05-06 02:54 49.94988 -93.80105 36982 ft 478 kts 99°
2026-05-06 02:55 49.93887 -93.69873 36977 ft 478 kts 99°
2026-05-06 02:55 49.92788 -93.59746 36975 ft 479 kts 99°
2026-05-06 02:56 49.91671 -93.49541 36973 ft 479 kts 99°
2026-05-06 02:56 49.90547 -93.39340 36970 ft 479 kts 99°
2026-05-06 02:57 49.89423 -93.29209 36972 ft 479 kts 99°
2026-05-06 02:57 49.88283 -93.19017 36955 ft 479 kts 99°
2026-05-06 02:58 49.87328 -93.10537 36946 ft 479 kts 99°
2026-05-06 02:58 49.86169 -93.00320 36930 ft 480 kts 99°
2026-05-06 02:59 49.85009 -92.90177 36917 ft 480 kts 99°
2026-05-06 02:59 49.83843 -92.80055 36915 ft 480 kts 100°
2026-05-06 03:00 49.82498 -92.69913 36919 ft 480 kts 102°
2026-05-06 03:00 49.81064 -92.59783 36917 ft 480 kts 102°
2026-05-06 03:01 49.79651 -92.49728 36926 ft 481 kts 102°
2026-05-06 03:01 49.78220 -92.39605 36936 ft 481 kts 102°
2026-05-06 03:02 49.76782 -92.29490 36947 ft 481 kts 102°
2026-05-06 03:02 49.75339 -92.19419 36955 ft 481 kts 102°
2026-05-06 03:03 49.73883 -92.09317 36945 ft 481 kts 102°
2026-05-06 03:03 49.72419 -91.99226 36945 ft 482 kts 103°
2026-05-06 03:04 49.70941 -91.89108 36939 ft 482 kts 103°
2026-05-06 03:04 49.69463 -91.79059 36942 ft 482 kts 103°
2026-05-06 03:05 49.67962 -91.68916 36940 ft 482 kts 103°
2026-05-06 03:05 49.66462 -91.58844 36930 ft 483 kts 103°
2026-05-06 03:06 49.64949 -91.48757 36934 ft 483 kts 103°
2026-05-06 03:06 49.63425 -91.38651 36927 ft 483 kts 103°
2026-05-06 03:07 49.61891 -91.28552 36923 ft 483 kts 103°
2026-05-06 03:07 49.60357 -91.18513 36919 ft 484 kts 103°
2026-05-06 03:08 49.58806 -91.08425 36915 ft 484 kts 103°
2026-05-06 03:08 49.57242 -90.98321 36915 ft 484 kts 104°
2026-05-06 03:09 49.55676 -90.88262 36919 ft 484 kts 104°
2026-05-06 03:09 49.54092 -90.78155 36915 ft 484 kts 104°
2026-05-06 03:10 49.52501 -90.68061 36911 ft 484 kts 104°
2026-05-06 03:10 49.50909 -90.58024 36911 ft 484 kts 104°
2026-05-06 03:11 49.49298 -90.47929 36908 ft 485 kts 104°
2026-05-06 03:11 49.47685 -90.37884 36903 ft 485 kts 104°
2026-05-06 03:12 49.46056 -90.27797 36904 ft 485 kts 104°
2026-05-06 03:12 49.44416 -90.17712 36902 ft 486 kts 104°
2026-05-06 03:13 49.42778 -90.07690 36900 ft 486 kts 104°
2026-05-06 03:13 49.41117 -89.97593 36895 ft 486 kts 104°
2026-05-06 03:14 49.39461 -89.87583 36897 ft 486 kts 105°
2026-05-06 03:14 49.37784 -89.77506 36895 ft 487 kts 105°
2026-05-06 03:15 49.36101 -89.67451 36894 ft 487 kts 105°
2026-05-06 03:15 49.34401 -89.57357 36894 ft 487 kts 105°
2026-05-06 03:16 49.32705 -89.47348 36890 ft 488 kts 105°
2026-05-06 03:16 49.30992 -89.37291 36893 ft 488 kts 105°
2026-05-06 03:17 49.29269 -89.27233 36889 ft 488 kts 105°
2026-05-06 03:17 49.27529 -89.17140 36886 ft 488 kts 105°
2026-05-06 03:18 49.25787 -89.07092 36887 ft 489 kts 105°
2026-05-06 03:18 49.24045 -88.97093 36880 ft 489 kts 105°
2026-05-06 03:19 49.22283 -88.87047 36873 ft 489 kts 106°
2026-05-06 03:19 49.20509 -88.76985 36866 ft 489 kts 106°
2026-05-06 03:20 49.17839 -88.61946 36856 ft 489 kts 106°
2026-05-06 03:20 49.16051 -88.51942 36848 ft 489 kts 106°
2026-05-06 03:21 49.14246 -88.41902 36844 ft 490 kts 106°
2026-05-06 03:21 49.12428 -88.31846 36843 ft 490 kts 106°
2026-05-06 03:22 49.10604 -88.21815 36843 ft 490 kts 107°
2026-05-06 03:22 49.08770 -88.11782 36841 ft 490 kts 107°
2026-05-06 03:23 49.06938 -88.01814 36844 ft 491 kts 107°
2026-05-06 03:23 49.05084 -87.91777 36843 ft 491 kts 107°
2026-05-06 03:24 49.03228 -87.81784 36842 ft 492 kts 107°
2026-05-06 03:24 49.01357 -87.71769 36845 ft 492 kts 107°
2026-05-06 03:25 48.99473 -87.61739 36853 ft 492 kts 107°
2026-05-06 03:25 48.97577 -87.51698 36851 ft 493 kts 107°
2026-05-06 03:26 48.95674 -87.41673 36848 ft 493 kts 107°
2026-05-06 03:26 48.93771 -87.31700 36846 ft 493 kts 107°
2026-05-06 03:27 48.91847 -87.21670 36850 ft 494 kts 108°
2026-05-06 03:27 48.89912 -87.11638 36851 ft 494 kts 108°
2026-05-06 03:28 48.87975 -87.01646 36852 ft 494 kts 108°
2026-05-06 03:28 48.86019 -86.91603 36853 ft 495 kts 108°
2026-05-06 03:29 48.84064 -86.81610 36854 ft 495 kts 108°
2026-05-06 03:29 48.82091 -86.71565 36855 ft 496 kts 108°
2026-05-06 03:30 48.80110 -86.61538 36853 ft 496 kts 108°
2026-05-06 03:30 48.78116 -86.51494 36853 ft 497 kts 108°
2026-05-06 03:31 48.76129 -86.41532 36852 ft 497 kts 108°
2026-05-06 03:31 48.74154 -86.31496 36849 ft 498 kts 107°
2026-05-06 03:32 48.72273 -86.21383 36853 ft 498 kts 107°
2026-05-06 03:32 48.70385 -86.11286 36854 ft 499 kts 107°
2026-05-06 03:33 48.68486 -86.01178 36847 ft 499 kts 108°
2026-05-06 03:33 48.66574 -85.91065 36848 ft 500 kts 108°
2026-05-06 03:34 48.64665 -85.81014 36844 ft 500 kts 108°
2026-05-06 03:34 48.62737 -85.70919 36847 ft 500 kts 108°
2026-05-06 03:35 48.60796 -85.60811 36846 ft 500 kts 108°
2026-05-06 03:35 48.58854 -85.50723 36845 ft 501 kts 108°
2026-05-06 03:36 48.56902 -85.40612 36840 ft 501 kts 108°
2026-05-06 03:36 48.54953 -85.30567 36839 ft 501 kts 108°
2026-05-06 03:37 48.52981 -85.20461 36843 ft 501 kts 108°
2026-05-06 03:37 48.51003 -85.10372 36841 ft 502 kts 108°
2026-05-06 03:38 48.49014 -85.00282 36842 ft 502 kts 109°
2026-05-06 03:38 48.47014 -84.90189 36843 ft 503 kts 109°
2026-05-06 03:39 48.45015 -84.80153 36838 ft 503 kts 109°
2026-05-06 03:39 48.42993 -84.70058 36841 ft 503 kts 109°
2026-05-06 03:40 48.40962 -84.59964 36841 ft 504 kts 109°
2026-05-06 03:40 48.38916 -84.49851 36841 ft 505 kts 109°
2026-05-06 03:41 48.36859 -84.39735 36842 ft 505 kts 109°
2026-05-06 03:41 48.34810 -84.29707 36844 ft 506 kts 109°
2026-05-06 03:42 48.32732 -84.19593 36844 ft 506 kts 109°
2026-05-06 03:42 48.30646 -84.09488 36844 ft 506 kts 109°
2026-05-06 03:43 48.28545 -83.99364 36840 ft 507 kts 110°
2026-05-06 03:43 48.26440 -83.89271 36845 ft 507 kts 110°
2026-05-06 03:44 48.24323 -83.79170 36841 ft 508 kts 110°
2026-05-06 03:44 48.22194 -83.69059 36835 ft 508 kts 110°
2026-05-06 03:45 48.20416 -83.60662 36837 ft 508 kts 110°
2026-05-06 03:45 48.18269 -83.50559 36832 ft 509 kts 110°
2026-05-06 03:46 48.15760 -83.38817 36832 ft 509 kts 110°
2026-05-06 03:46 48.13592 -83.28729 36828 ft 509 kts 110°
2026-05-06 03:47 48.11780 -83.20332 36842 ft 510 kts 110°
2026-05-06 03:47 48.09587 -83.10214 36842 ft 510 kts 111°
2026-05-06 03:48 48.07389 -83.00129 36839 ft 510 kts 111°
2026-05-06 03:48 48.05186 -82.90063 36838 ft 510 kts 111°
2026-05-06 03:49 48.02970 -82.79993 36840 ft 510 kts 111°
2026-05-06 03:49 48.00764 -82.70010 36841 ft 510 kts 111°
2026-05-06 03:50 47.98533 -82.59968 36833 ft 510 kts 111°
2026-05-06 03:50 47.96291 -82.49922 36834 ft 510 kts 111°
2026-05-06 03:51 47.94037 -82.39870 36835 ft 510 kts 111°
2026-05-06 03:51 47.91782 -82.29860 36838 ft 510 kts 112°
2026-05-06 03:52 47.89508 -82.19814 36838 ft 511 kts 112°
2026-05-06 03:52 47.87231 -82.09804 36837 ft 511 kts 112°
2026-05-06 03:53 47.84956 -81.99848 36838 ft 511 kts 112°
2026-05-06 03:53 47.82656 -81.89828 36838 ft 511 kts 112°
2026-05-06 03:54 47.80346 -81.79811 36834 ft 512 kts 112°
2026-05-06 03:54 47.78025 -81.69796 36833 ft 512 kts 112°
2026-05-06 03:55 47.75697 -81.59795 36830 ft 512 kts 112°
2026-05-06 03:55 47.73352 -81.49770 36831 ft 513 kts 113°
2026-05-06 03:56 47.71002 -81.39769 36830 ft 513 kts 113°
2026-05-06 03:56 47.68655 -81.29825 36830 ft 514 kts 113°
2026-05-06 03:57 47.66285 -81.19820 36829 ft 514 kts 113°
2026-05-06 03:57 47.63903 -81.09802 36825 ft 514 kts 113°
2026-05-06 03:58 47.61515 -80.99807 36827 ft 514 kts 113°
2026-05-06 03:58 47.59118 -80.89818 36823 ft 515 kts 114°
2026-05-06 03:59 47.56703 -80.79837 36825 ft 515 kts 114°
2026-05-06 03:59 47.54282 -80.69843 36815 ft 515 kts 114°
2026-05-06 04:00 47.51859 -80.59865 36816 ft 515 kts 114°
2026-05-06 04:00 47.49440 -80.49947 36809 ft 516 kts 114°
2026-05-06 04:01 47.46995 -80.39971 36806 ft 516 kts 114°
2026-05-06 04:01 47.44543 -80.30005 36807 ft 516 kts 114°
2026-05-06 04:02 47.42079 -80.20037 36814 ft 516 kts 114°
2026-05-06 04:02 47.39610 -80.10095 36812 ft 516 kts 115°
2026-05-06 04:03 47.37129 -80.00147 36812 ft 516 kts 115°
2026-05-06 04:03 47.34640 -79.90212 36811 ft 516 kts 115°
2026-05-06 04:04 47.32159 -79.80353 36813 ft 517 kts 115°
2026-05-06 04:04 47.29649 -79.70416 36807 ft 517 kts 115°
2026-05-06 04:05 47.27129 -79.60491 36816 ft 517 kts 115°
2026-05-06 04:05 47.24602 -79.50577 36810 ft 517 kts 115°
2026-05-06 04:06 47.22065 -79.40667 36813 ft 517 kts 116°
2026-05-06 04:06 47.19537 -79.30832 36815 ft 517 kts 116°
2026-05-06 04:07 47.16983 -79.20944 36817 ft 517 kts 116°
2026-05-06 04:07 47.14423 -79.11070 36810 ft 517 kts 116°
2026-05-06 04:08 47.11851 -79.01196 36815 ft 517 kts 116°
2026-05-06 04:08 47.09273 -78.91338 36812 ft 518 kts 116°
2026-05-06 04:09 47.06681 -78.81471 36811 ft 518 kts 116°
2026-05-06 04:09 47.04080 -78.71611 36814 ft 518 kts 117°
2026-05-06 04:10 47.01471 -78.61759 36815 ft 518 kts 117°
2026-05-06 04:10 46.98853 -78.51921 36820 ft 519 kts 117°
2026-05-06 04:11 46.96238 -78.42130 36814 ft 519 kts 117°
2026-05-06 04:11 46.93604 -78.32311 36817 ft 519 kts 117°
2026-05-06 04:12 46.90959 -78.22490 36814 ft 519 kts 117°
2026-05-06 04:12 46.88300 -78.12661 36812 ft 519 kts 117°
2026-05-06 04:13 46.85638 -78.02856 36816 ft 519 kts 118°
2026-05-06 04:13 46.82962 -77.93048 36822 ft 519 kts 118°
2026-05-06 04:14 46.80277 -77.83242 36820 ft 519 kts 118°
2026-05-06 04:14 46.77602 -77.73509 36822 ft 520 kts 118°
2026-05-06 04:15 46.74907 -77.63733 36819 ft 520 kts 118°
2026-05-06 04:15 46.72199 -77.53950 36828 ft 520 kts 118°
2026-05-06 04:16 46.69471 -77.44198 36826 ft 520 kts 118°
2026-05-06 04:16 46.66737 -77.34461 36828 ft 520 kts 118°
2026-05-06 04:17 46.63987 -77.24702 36828 ft 520 kts 118°
2026-05-06 04:17 46.61236 -77.14974 36824 ft 519 kts 118°
2026-05-06 04:18 46.58481 -77.05272 36828 ft 519 kts 118°
2026-05-06 04:18 46.55716 -76.95574 36827 ft 519 kts 118°
2026-05-06 04:19 46.52963 -76.85955 36825 ft 518 kts 119°
2026-05-06 04:19 46.50188 -76.76301 36830 ft 518 kts 119°
2026-05-06 04:20 46.47410 -76.66671 36824 ft 517 kts 119°
2026-05-06 04:20 46.44622 -76.57046 36826 ft 517 kts 119°
2026-05-06 04:21 46.41831 -76.47447 36822 ft 516 kts 119°
2026-05-06 04:21 46.39035 -76.37869 36822 ft 516 kts 119°
2026-05-06 04:22 46.36249 -76.28360 36822 ft 516 kts 119°
2026-05-06 04:23 46.32025 -76.14018 36817 ft 516 kts 119°
2026-05-06 04:23 46.29200 -76.04467 36816 ft 516 kts 119°
2026-05-06 04:24 46.26367 -75.94929 36814 ft 516 kts 119°
2026-05-06 04:24 46.23525 -75.85397 36820 ft 516 kts 119°
2026-05-06 04:25 46.20679 -75.75889 36817 ft 516 kts 119°
2026-05-06 04:25 46.17825 -75.66376 36812 ft 516 kts 119°
2026-05-06 04:26 46.15052 -75.56838 36808 ft 519 kts 114°
2026-05-06 04:26 46.12705 -75.46983 36810 ft 519 kts 114°
2026-05-06 04:27 46.10293 -75.37163 36799 ft 519 kts 115°
2026-05-06 04:27 46.07889 -75.27442 36822 ft 519 kts 114°
2026-05-06 04:28 46.05458 -75.17656 36821 ft 519 kts 114°
2026-05-06 04:28 46.03018 -75.07881 36809 ft 519 kts 114°
2026-05-06 04:29 46.00571 -74.98115 36819 ft 519 kts 114°
2026-05-06 04:29 45.98514 -74.89936 36822 ft 519 kts 114°
2026-05-06 04:30 45.95650 -74.78603 36817 ft 518 kts 114°
2026-05-06 04:30 45.93179 -74.68866 36812 ft 518 kts 114°
2026-05-06 04:31 45.90701 -74.59141 36813 ft 518 kts 114°
2026-05-06 04:31 45.88219 -74.49449 36819 ft 517 kts 114°
2026-05-06 04:32 45.85763 -74.39888 36819 ft 497 kts 114°
2026-05-06 04:32 45.83385 -74.30677 36821 ft 489 kts 114°
2026-05-06 04:33 45.81022 -74.21559 36827 ft 488 kts 114°
2026-05-06 04:33 45.78653 -74.12449 36827 ft 487 kts 114°
2026-05-06 04:34 45.76294 -74.03416 36829 ft 487 kts 114°
2026-05-06 04:34 45.74933 -73.98224 36828 ft 487 kts 114°
2026-05-06 04:35 45.72953 -73.90681 36828 ft 487 kts 114°
2026-05-06 04:35 45.70561 -73.81612 36827 ft 486 kts 114°
2026-05-06 04:36 45.67771 -73.73051 36814 ft 453 kts 135°
2026-05-06 04:36 45.65611 -73.70003 36846 ft 425 kts 154°
2026-05-06 04:36 45.62203 -73.67750 36819 ft 394 kts 179°
2026-05-06 04:36 45.60409 -73.67461 36817 ft 378 kts 192°
2026-05-06 04:37 45.57877 -73.67965 36837 ft 363 kts 203°
2026-05-06 04:37 45.53104 -73.70166 36857 ft 360 kts 210°
2026-05-06 04:37 45.50894 -73.71705 36810 ft 349 kts 222°
2026-05-06 04:38 45.48920 -73.73697 36856 ft 347 kts 224°
2026-05-06 04:38 45.44706 -73.77234 36824 ft 371 kts 201°
2026-05-06 04:38 45.42100 -73.77496 36824 ft 393 kts 182°
2026-05-06 04:39 45.39366 -73.76785 36858 ft 403 kts 177°
2026-05-06 04:39 45.33853 -73.75086 36846 ft 408 kts 178°
2026-05-06 04:40 45.28258 -73.73533 36844 ft 412 kts 179°
2026-05-06 04:40 45.22558 -73.72139 36840 ft 417 kts 180°
2026-05-06 04:41 45.16828 -73.70923 36842 ft 421 kts 181°
2026-05-06 04:41 45.10972 -73.69878 36841 ft 426 kts 182°
2026-05-06 04:42 45.05032 -73.69019 36844 ft 431 kts 183°
2026-05-06 04:42 44.99022 -73.68358 36840 ft 435 kts 185°
2026-05-06 04:43 44.92946 -73.67901 36847 ft 440 kts 186°
2026-05-06 04:43 44.86827 -73.67658 36846 ft 444 kts 187°
2026-05-06 04:44 44.80623 -73.67634 36851 ft 447 kts 188°
2026-05-06 04:44 44.74403 -73.67828 36851 ft 446 kts 190°
2026-05-06 04:45 44.68213 -73.68232 36848 ft 445 kts 191°
2026-05-06 04:45 44.62045 -73.68853 36845 ft 444 kts 192°
2026-05-06 04:46 44.55907 -73.69689 36856 ft 443 kts 194°
2026-05-06 04:46 44.49797 -73.70747 36847 ft 441 kts 195°
2026-05-06 04:47 44.43757 -73.72014 36868 ft 441 kts 197°
2026-05-06 04:47 44.37718 -73.73508 36873 ft 439 kts 198°
2026-05-06 04:48 44.31726 -73.75223 36884 ft 438 kts 200°
2026-05-06 04:48 44.25787 -73.77155 36880 ft 437 kts 201°
2026-05-06 04:49 44.19951 -73.79285 36881 ft 436 kts 202°
2026-05-06 04:49 44.14123 -73.81647 36876 ft 435 kts 204°
2026-05-06 04:50 44.08376 -73.84221 36879 ft 433 kts 206°
2026-05-06 04:50 44.02688 -73.87017 36885 ft 432 kts 207°
2026-05-06 04:51 43.97086 -73.90023 36871 ft 431 kts 208°
2026-05-06 04:51 43.91599 -73.93223 36872 ft 430 kts 210°
2026-05-06 04:52 43.86166 -73.96652 36878 ft 428 kts 212°
2026-05-06 04:52 43.80822 -74.00293 36879 ft 427 kts 213°
2026-05-06 04:53 43.75577 -74.04143 36879 ft 425 kts 215°
2026-05-06 04:53 43.70452 -74.08189 36879 ft 424 kts 217°
2026-05-06 04:54 43.65428 -74.12440 36874 ft 422 kts 218°
2026-05-06 04:54 43.60528 -74.16890 36867 ft 421 kts 220°
2026-05-06 04:55 43.55753 -74.21542 36877 ft 419 kts 222°
2026-05-06 04:55 43.51114 -74.26388 36877 ft 418 kts 224°
2026-05-06 04:56 43.46614 -74.31422 36879 ft 416 kts 225°
2026-05-06 04:56 43.42281 -74.36620 36876 ft 415 kts 227°
2026-05-06 04:57 43.38067 -74.42049 36884 ft 414 kts 229°
2026-05-06 04:57 43.34015 -74.47662 36887 ft 413 kts 231°
2026-05-06 04:58 43.30120 -74.53463 36889 ft 412 kts 233°
2026-05-06 04:58 43.26402 -74.59443 36886 ft 411 kts 235°
2026-05-06 04:59 43.22862 -74.65601 36893 ft 410 kts 237°
2026-05-06 04:59 43.19528 -74.71890 36890 ft 409 kts 239°
2026-05-06 05:00 43.16365 -74.78380 36901 ft 409 kts 241°
2026-05-06 05:00 43.13408 -74.85023 36898 ft 408 kts 243°
2026-05-06 05:01 43.10665 -74.91817 36909 ft 407 kts 245°
2026-05-06 05:01 43.08159 -74.98713 36904 ft 407 kts 248°
2026-05-06 05:02 43.05867 -75.05779 36914 ft 407 kts 250°
2026-05-06 05:02 43.03809 -75.12979 36906 ft 406 kts 252°
2026-05-06 05:03 43.02000 -75.20289 36918 ft 406 kts 255°
2026-05-06 05:03 43.00448 -75.27722 36914 ft 406 kts 257°
2026-05-06 05:04 42.99165 -75.35235 36937 ft 406 kts 260°
2026-05-06 05:04 42.98196 -75.42847 36909 ft 406 kts 267°
2026-05-06 05:04 42.98467 -75.46650 36903 ft 403 kts 285°
2026-05-06 05:05 42.99209 -75.50347 36888 ft 405 kts 277°
2026-05-06 05:05 42.99103 -75.58018 36916 ft 406 kts 267°
2026-05-06 05:06 42.98919 -75.65676 36914 ft 406 kts 270°
2026-05-06 05:06 42.99065 -75.73372 36916 ft 406 kts 273°
2026-05-06 05:07 42.99561 -75.81056 36914 ft 405 kts 276°
2026-05-06 05:07 43.00423 -75.88675 36921 ft 405 kts 280°
2026-05-06 05:08 43.01652 -75.96147 36922 ft 405 kts 283°
2026-05-06 05:08 43.03277 -76.03533 36916 ft 405 kts 287°
2026-05-06 05:09 43.05302 -76.10728 36916 ft 406 kts 291°
2026-05-06 05:09 43.07743 -76.17685 36922 ft 406 kts 295°
2026-05-06 05:10 43.10615 -76.24353 36916 ft 407 kts 300°
2026-05-06 05:10 43.13908 -76.30619 36914 ft 409 kts 305°
2026-05-06 05:11 43.17673 -76.36492 36915 ft 411 kts 310°
2026-05-06 05:11 43.21896 -76.41817 36919 ft 414 kts 316°
2026-05-06 05:12 43.26578 -76.46483 36915 ft 418 kts 322°
2026-05-06 05:12 43.31699 -76.50325 36918 ft 423 kts 329°
2026-05-06 05:13 43.37223 -76.53158 36917 ft 430 kts 338°
2026-05-06 05:13 43.43143 -76.54758 36918 ft 438 kts 347°
2026-05-06 05:14 43.49313 -76.54759 36917 ft 450 kts 360°
2026-05-06 05:14 43.55477 -76.52677 36918 ft 465 kts 15°
2026-05-06 05:15 43.61277 -76.48515 36904 ft 466 kts 13°
2026-05-06 05:15 43.64351 -76.47582 36910 ft 442 kts 354°
2026-05-06 05:15 43.67416 -76.47547 36914 ft 445 kts 357°
2026-05-06 05:15 43.70501 -76.46646 36903 ft 462 kts 14°
2026-05-06 05:16 43.73373 -76.44518 36918 ft 478 kts 31°
2026-05-06 05:16 43.75809 -76.41309 36923 ft 491 kts 48°
2026-05-06 05:16 43.77624 -76.37261 36931 ft 499 kts 60°
2026-05-06 05:17 43.81292 -76.29222 36911 ft 486 kts 38°
2026-05-06 05:17 43.86201 -76.22835 36913 ft 487 kts 37°
2026-05-06 05:18 43.91230 -76.16529 36915 ft 487 kts 36°
2026-05-06 05:18 43.96293 -76.10257 36921 ft 487 kts 36°
2026-05-06 05:19 44.01353 -76.03977 36917 ft 488 kts 36°
2026-05-06 05:19 44.06395 -75.97712 36921 ft 489 kts 36°
2026-05-06 05:20 44.11476 -75.91379 36912 ft 489 kts 36°
2026-05-06 05:20 44.16556 -75.85034 36894 ft 490 kts 36°
2026-05-06 05:21 44.21593 -75.78725 36888 ft 490 kts 36°
2026-05-06 05:21 44.26682 -75.72340 36891 ft 491 kts 36°
2026-05-06 05:22 44.31762 -75.65948 36890 ft 491 kts 36°
2026-05-06 05:22 44.36811 -75.59580 36896 ft 492 kts 36°
2026-05-06 05:23 44.41888 -75.53159 36887 ft 492 kts 36°
2026-05-06 05:23 44.49505 -75.43500 36881 ft 493 kts 36°
2026-05-06 05:24 44.54592 -75.37028 36885 ft 493 kts 36°
2026-05-06 05:24 44.58817 -75.31642 36885 ft 494 kts 36°
2026-05-06 05:25 44.63898 -75.25149 36887 ft 494 kts 36°
2026-05-06 05:25 44.68982 -75.18636 36891 ft 494 kts 36°
2026-05-06 05:26 44.74071 -75.12099 36891 ft 495 kts 36°
2026-05-06 05:26 44.79118 -75.05601 36892 ft 495 kts 36°
2026-05-06 05:27 44.84228 -74.99006 36899 ft 495 kts 36°
2026-05-06 05:27 44.89267 -74.92486 36897 ft 495 kts 36°
2026-05-06 05:28 44.94332 -74.85915 36900 ft 495 kts 36°
2026-05-06 05:28 44.99411 -74.79311 36898 ft 495 kts 36°
2026-05-06 05:29 45.04482 -74.72700 36900 ft 496 kts 36°
2026-05-06 05:29 45.09548 -74.66078 36886 ft 496 kts 37°
2026-05-06 05:30 45.14614 -74.59440 36868 ft 497 kts 37°
2026-05-06 05:30 45.17115 -74.56140 36854 ft 483 kts 37°
2026-05-06 05:30 45.19538 -74.52932 36864 ft 474 kts 36°
2026-05-06 05:31 45.24320 -74.46626 36843 ft 470 kts 36°
2026-05-06 05:31 45.29123 -74.40291 36842 ft 471 kts 36°
2026-05-06 05:32 45.33924 -74.33945 36842 ft 471 kts 36°
2026-05-06 05:32 45.38728 -74.27580 36840 ft 472 kts 37°
2026-05-06 05:33 45.43528 -74.21204 36840 ft 472 kts 37°
2026-05-06 05:33 45.48326 -74.14814 36842 ft 472 kts 37°
2026-05-06 05:34 45.53137 -74.08392 36843 ft 473 kts 37°
2026-05-06 05:34 45.57920 -74.01990 36852 ft 463 kts 37°
2026-05-06 05:35 45.60194 -73.98940 36852 ft 449 kts 36°
2026-05-06 05:35 45.62502 -73.95905 36834 ft 443 kts 31°
2026-05-06 05:35 45.65014 -73.93594 36834 ft 428 kts 15°
2026-05-06 05:35 45.67782 -73.92243 36849 ft 414 kts
2026-05-06 05:36 45.70583 -73.91888 36835 ft 398 kts 346°
2026-05-06 05:36 45.73237 -73.92573 36833 ft 379 kts 329°
2026-05-06 05:36 45.75479 -73.94338 36837 ft 359 kts 311°
2026-05-06 05:36 45.77083 -73.96958 36841 ft 345 kts 293°
2026-05-06 05:37 45.77933 -74.00102 36835 ft 337 kts 276°
2026-05-06 05:37 45.77949 -74.03427 36832 ft 335 kts 258°
2026-05-06 05:37 45.77096 -74.06539 36833 ft 343 kts 239°
2026-05-06 05:37 45.75392 -74.09005 36837 ft 357 kts 221°
2026-05-06 05:38 45.71655 -74.13581 36840 ft 354 kts 230°
2026-05-06 05:38 45.67709 -74.18042 36837 ft 363 kts 226°
2026-05-06 05:39 45.63630 -74.22347 36828 ft 381 kts 210°
2026-05-06 05:39 45.60961 -74.23115 36816 ft 409 kts 187°
2026-05-06 05:39 45.58098 -74.22224 36808 ft 437 kts 163°
2026-05-06 05:40 45.55542 -74.19696 36804 ft 463 kts 140°
2026-05-06 05:40 45.53713 -74.15813 36803 ft 481 kts 115°
2026-05-06 05:40 45.52946 -74.11138 36806 ft 490 kts 91°
2026-05-06 05:40 45.53366 -74.06355 36804 ft 488 kts 68°
2026-05-06 05:41 45.54894 -74.02112 36828 ft 477 kts 46°
2026-05-06 05:41 45.57177 -73.98767 36845 ft 464 kts 28°
2026-05-06 05:41 45.59921 -73.96525 36843 ft 447 kts 11°
2026-05-06 05:41 45.62880 -73.95504 36843 ft 429 kts 355°
2026-05-06 05:42 45.65812 -73.95533 36846 ft 416 kts 342°
2026-05-06 05:42 45.68587 -73.96397 36843 ft 404 kts 331°
2026-05-06 05:42 45.71076 -73.97993 36844 ft 392 kts 319°
2026-05-06 05:42 45.73241 -74.00338 36841 ft 381 kts 307°
2026-05-06 05:43 45.74839 -74.03221 36840 ft 371 kts 293°
2026-05-06 05:43 45.75786 -74.06593 36841 ft 363 kts 277°
2026-05-06 05:43 45.75857 -74.10163 36822 ft 361 kts 258°
2026-05-06 05:43 45.74852 -74.13467 36826 ft 370 kts 236°
2026-05-06 05:44 45.72853 -74.15883 36840 ft 389 kts 215°
2026-05-06 05:44 45.70271 -74.17266 36848 ft 404 kts 204°
2026-05-06 05:44 45.65019 -74.19952 36830 ft 391 kts 221°
2026-05-06 05:45 45.59943 -74.23037 36813 ft 427 kts 190°
2026-05-06 05:45 45.56922 -74.22397 36809 ft 456 kts 168°
2026-05-06 05:45 45.54117 -74.20092 36802 ft 482 kts 145°
2026-05-06 05:46 45.51941 -74.16347 36800 ft 503 kts 123°
2026-05-06 05:46 45.50735 -74.11592 36803 ft 516 kts 101°
2026-05-06 05:46 45.50695 -74.06548 36807 ft 519 kts 78°
2026-05-06 05:46 45.51832 -74.01692 36808 ft 513 kts 56°
2026-05-06 05:47 45.53919 -73.97647 36835 ft 502 kts 38°
2026-05-06 05:47 45.56603 -73.94595 36835 ft 488 kts 22°
2026-05-06 05:47 45.59664 -73.92705 36843 ft 471 kts
2026-05-06 05:47 45.62843 -73.92024 36841 ft 454 kts 351°
2026-05-06 05:48 45.65888 -73.92424 36840 ft 438 kts 337°
2026-05-06 05:48 45.68727 -73.93762 36844 ft 424 kts 325°
2026-05-06 05:48 45.71234 -73.95833 36844 ft 411 kts 314°
2026-05-06 05:48 45.73321 -73.98532 36838 ft 399 kts 303°
2026-05-06 05:49 45.74874 -74.01738 36844 ft 388 kts 291°
2026-05-06 05:49 45.75783 -74.05320 36843 ft 379 kts 277°
2026-05-06 05:49 45.75913 -74.09044 36834 ft 375 kts 262°
2026-05-06 05:49 45.75085 -74.12559 36823 ft 379 kts 240°
2026-05-06 05:50 45.73228 -74.15292 36829 ft 394 kts 219°
2026-05-06 05:50 45.70689 -74.16985 36848 ft 410 kts 207°
2026-05-06 05:50 45.65435 -74.20080 36816 ft 397 kts 223°
2026-05-06 05:51 45.60534 -74.23749 36816 ft 423 kts 195°
2026-05-06 05:51 45.57511 -74.23481 36814 ft 452 kts 173°
2026-05-06 05:51 45.54592 -74.21515 36801 ft 480 kts 151°
2026-05-06 05:52 45.52216 -74.18034 36798 ft 504 kts 129°
2026-05-06 05:52 45.50745 -74.13441 36802 ft 519 kts 106°
2026-05-06 05:52 45.50404 -74.08362 36805 ft 525 kts 84°
2026-05-06 05:52 45.51249 -74.03327 36808 ft 521 kts 62°
2026-05-06 05:53 45.53150 -73.99015 36834 ft 509 kts 42°
2026-05-06 05:53 45.55743 -73.95680 36857 ft 496 kts 26°
2026-05-06 05:53 45.58752 -73.93478 36832 ft 479 kts
2026-05-06 05:53 45.61940 -73.92498 36838 ft 461 kts 354°
2026-05-06 05:54 45.65087 -73.92626 36843 ft 444 kts 340°
2026-05-06 05:54 45.68014 -73.93723 36846 ft 428 kts 328°
2026-05-06 05:54 45.70638 -73.95590 36843 ft 415 kts 317°
2026-05-06 05:54 45.72866 -73.98106 36844 ft 401 kts 306°
2026-05-06 05:55 45.74588 -74.01158 36848 ft 389 kts 294°
2026-05-06 05:55 45.75698 -74.04631 36843 ft 379 kts 281°
2026-05-06 05:55 45.76061 -74.08270 36843 ft 373 kts 266°
2026-05-06 05:55 45.75528 -74.11872 36826 ft 374 kts 247°
2026-05-06 05:56 45.73969 -74.14876 36827 ft 386 kts 225°
2026-05-06 05:56 45.71587 -74.16831 36855 ft 405 kts 209°
2026-05-06 05:56 45.66200 -74.19481 36825 ft 402 kts 217°
2026-05-06 05:57 45.61422 -74.23433 36806 ft 414 kts 202°
2026-05-06 05:57 45.58483 -74.23669 36814 ft 442 kts 180°
2026-05-06 05:57 45.55485 -74.22208 36807 ft 472 kts 158°
2026-05-06 05:58 45.52892 -74.19135 36800 ft 499 kts 135°
2026-05-06 05:58 45.51109 -74.14796 36806 ft 518 kts 113°
2026-05-06 05:58 45.50407 -74.09735 36808 ft 527 kts 91°
2026-05-06 05:58 45.50897 -74.04583 36809 ft 527 kts 69°
2026-05-06 05:59 45.52486 -74.00011 36818 ft 518 kts 49°
2026-05-06 05:59 45.54878 -73.96276 36840 ft 505 kts 32°
2026-05-06 05:59 45.57781 -73.93601 36842 ft 489 kts 15°
2026-05-06 05:59 45.60956 -73.92138 36837 ft 470 kts 359°
2026-05-06 06:00 45.64150 -73.91840 36846 ft 452 kts 346°
2026-05-06 06:00 45.67181 -73.92565 36841 ft 434 kts 333°
2026-05-06 06:00 45.69927 -73.94151 36846 ft 420 kts 321°
2026-05-06 06:00 45.72317 -73.96428 36840 ft 406 kts 310°
2026-05-06 06:01 45.74247 -73.99293 36845 ft 393 kts 299°
2026-05-06 06:01 45.75605 -74.02608 36842 ft 381 kts 287°
2026-05-06 06:01 45.76289 -74.06219 36837 ft 373 kts 272°
2026-05-06 06:01 45.76165 -74.09844 36829 ft 370 kts 256°
2026-05-06 06:02 45.75068 -74.13158 36825 ft 376 kts 235°
2026-05-06 06:02 45.73002 -74.15572 36836 ft 395 kts 215°
2026-05-06 06:02 45.70417 -74.17076 36845 ft 406 kts 209°
2026-05-06 06:02 45.67792 -74.18543 36830 ft 402 kts 215°
2026-05-06 06:03 45.65527 -74.20727 36842 ft 385 kts 229°
2026-05-06 06:03 45.63434 -74.23154 36816 ft 395 kts 217°
2026-05-06 06:03 45.60775 -74.24456 36818 ft 420 kts 195°
2026-05-06 06:03 45.57778 -74.24140 36807 ft 451 kts 173°
2026-05-06 06:04 45.54868 -74.22123 36782 ft 482 kts 151°
2026-05-06 06:04 45.52509 -74.18584 36810 ft 507 kts 129°
2026-05-06 06:04 45.51058 -74.13982 36810 ft 524 kts 107°
2026-05-06 06:04 45.50719 -74.08781 36815 ft 531 kts 84°
2026-05-06 06:05 45.51577 -74.03679 36820 ft 528 kts 62°
2026-05-06 06:05 45.53483 -73.99290 36831 ft 517 kts 43°
2026-05-06 06:05 45.56083 -73.95851 36840 ft 503 kts 26°
2026-05-06 06:05 45.59107 -73.93545 36841 ft 485 kts 10°
2026-05-06 06:06 45.62314 -73.92453 36845 ft 466 kts 355°
2026-05-06 06:06 45.65489 -73.92479 36843 ft 447 kts 341°
2026-05-06 06:06 45.68441 -73.93478 36846 ft 430 kts 329°
2026-05-06 06:06 45.71106 -73.95259 36843 ft 415 kts 318°
2026-05-06 06:07 45.73363 -73.97700 36842 ft 401 kts 307°
2026-05-06 06:07 45.75113 -74.00711 36844 ft 387 kts 294°
2026-05-06 06:07 45.76228 -74.04136 36842 ft 376 kts 281°
2026-05-06 06:07 45.76590 -74.07748 36839 ft 369 kts 266°
2026-05-06 06:08 45.76044 -74.11301 36825 ft 370 kts 246°
2026-05-06 06:08 45.74436 -74.14232 36829 ft 384 kts 224°
2026-05-06 06:08 45.72043 -74.16091 36851 ft 402 kts 210°
2026-05-06 06:08 45.69413 -74.17520 36836 ft 405 kts 211°
2026-05-06 06:09 45.66907 -74.19246 36820 ft 393 kts 223°
2026-05-06 06:09 45.64891 -74.21770 36848 ft 383 kts 230°
2026-05-06 06:09 45.62711 -74.24057 36811 ft 400 kts 212°
2026-05-06 06:09 45.59928 -74.24991 36821 ft 427 kts 190°
2026-05-06 06:10 45.56911 -74.24264 36812 ft 460 kts 168°
2026-05-06 06:10 45.54089 -74.21857 36810 ft 489 kts 146°
2026-05-06 06:10 45.52242 -74.18814 36806 ft 509 kts 128°
2026-05-06 06:10 45.50781 -74.13827 36827 ft 526 kts 104°
2026-05-06 06:11 45.50580 -74.08654 36798 ft 532 kts 82°
2026-05-06 06:11 45.51573 -74.03601 36823 ft 526 kts 59°
2026-05-06 06:11 45.53548 -73.99320 36846 ft 513 kts 45°
2026-05-06 06:11 45.55003 -73.96627 36838 ft 509 kts 53°
2026-05-06 06:12 45.56502 -73.92068 36790 ft 506 kts 75°
2026-05-06 06:12 45.56712 -73.85673 36865 ft 475 kts 107°
2026-05-06 06:12 45.55646 -73.81308 36860 ft 455 kts 127°
2026-05-06 06:12 45.54499 -73.78837 36853 ft 440 kts 142°
2026-05-06 06:13 45.52220 -73.76183 36823 ft 406 kts 167°